Location: Firdgum
(53.2488°N, 5.5615°E)
Time: 02:53:10
(UTC+00:00)

CORIOLIS - Pass Details

Date: 08 December 2019
Orbit: 818 x 839 km, 98.7° (Epoch: 17 January)

Event Time Altitude Azimuth Distance (km) Brightness Sun altitude
Rises 06:45:42 0° 14° (NNE) 3,400 7.2 -7.4°
Reaches altitude 10° 06:48:05 10° 12° (NNE) 2,459 6.5 -7.1°
Maximum altitude 06:53:29 70° 291° (WNW) 888 4.2 -6.4°
Drops below altitude 10° 06:58:50 10° 208° (SSW) 2,429 6.6 -5.7°
Sets 07:01:11 0° 206° (SSW) 3,354 7.4 -5.4°
